Location: Champs
(48.8539°N, 2.6040°E)
Time: 13:36:57
(UTC+00:00)

Cosmos 1726 Rocket - Pass Details

Date: 26 October 2021
Orbit: 601 x 630 km, 82.5° (Epoch: 06 December)

Event Time Altitude Azimuth Distance (km) Brightness Sun altitude
Rises 05:46:09 0° 352° (N) 2,913 6.8 -7.4°
Reaches altitude 10° 05:48:25 10° 355° (N) 1,997 6.0 -7.0°
Maximum altitude 05:52:50 68° 79° (ENE) 667 4.0 -6.3°
Drops below altitude 10° 05:57:10 10° 162° (SSE) 1,963 6.6 -5.6°
Sets 05:59:22 0° 165° (SSE) 2,858 7.4 -5.2°
